Weather Roundup
Issued by NWS Chicago, IL

Home | Current Version | Previous Version | Text Only | Print | Product List | Glossary Off
Versions: 1 2 3 4 5 6 7 8 9 10 11 12 13 14 15 16 17 18 19 20 21 22 23 24 25 26 27 28 29 30 31 32 33 34 35 36 37 38 39 40 41 42 43 44 45 46 47 48 49 50

009
NZUS59 KLOT 290108
HRRLOT

CHICAGO AREA WEATHER ROUNDUP
NATIONAL WEATHER SERVICE CHICAGO/ROMEOVILLE IL
800 PM CDT SAT MAY 28 2016

NOTE: "FAIR" INDICATES FEW OR NO CLOUDS BELOW 12,000 FEET WITH NO
SIGNIFICANT WEATHER AND/OR OBSTRUCTIONS TO VISIBILITY.

* THESE STATIONS ARE NOT UNDER NWS QUALITY CONTROL. THEY ALSO MAY NOT
  REPORT WEATHER SUCH AS PRECIPITATION OR FOG.

ILZ005-006-012>014-019>023-290200-
NORTHEAST ILLINOIS

CITY           SKY/WX    TMP DP  RH WIND       PRES   REMARKS
OHARE          MOCLDY    77  64  64 S16G26    29.88S
MIDWAY         MOCLDY    81  61  50 S15       29.90R HX  82
AURORA         PTCLDY    79  66  64 S20G29    29.87S HX  81
LANSING*       PTCLDY    77  63  61 S15       29.93R
JOLIET*        PTCLDY    80  65  61 S14G20    29.90S HX  81
WAUKEGAN       CLEAR     78  64  61 S10       29.87S HX  80
DUPAGE AIRPORT CLEAR     77  64  64 S16G26    29.87S
WHEELING       CLEAR     79  63  57 S18       29.89S HX  80
KANKAKEE*      PTCLDY    77  64  62 S15       29.94R
MORRIS*        PTCLDY    78  66  65 S18G24    29.88S HX  80
LEWIS AIRPORT* CLEAR     78  61  55 S16G22    29.90S HX  80
$$

WIZ051-052-058>065-066-070>072-290200-
SOUTHEAST WISCONSIN

CITY           SKY/WX    TMP DP  RH WIND       PRES   REMARKS
MILWAUKEE      PTCLDY    74  62  66 SE12      29.86S
KENOSHA*       PTCLDY    79  64  60 S16       29.87S HX  81
RACINE*        CLEAR     68  58  70 S12       29.88F
BURLINGTON     PTCLDY    77  63  60 S9        29.85S
WAUKESHA       PTCLDY    75  63  64 SE9G18    29.86S
WEST BEND      CLEAR     73  61  64 SE6       29.85S
$$

INZ001>003-010>013-019-020-290200-
NORTHWEST INDIANA

CITY           SKY/WX    TMP DP  RH WIND       PRES   REMARKS
GARY*          PTCLDY    81  70  69 S7G23     29.92S HX  84
MICHIGAN CITY* NOT AVBL
RENSSELAER*    NOT AVBL
VALPARAISO     CLEAR     79  60  52 S10       29.96R HX  80
$$

LMZ740>746-290200-
SOUTHERN LAKE MICHIGAN

STATION/POSITION TIME  SKY/WX   TEMP WIND        PRES    VSBY
                                AIR  DIR/SP/G
                 (UTC)          (F)  (DEG/KT/KT) (MB)    (MI)
HARRISON CRIB    0000            79  190/ 23/ 24   N/A
BURNHAM HARBOR   0100            79  190/  8/ 21   N/A
CALUMET HARBOR   0000                170/ 15/ 20   N/A
BURNS HARBOR     0000            80  190/ 14/ 21 1013.5R
MICHIGAN CITY    0000            81  150/ 14/ 18   N/A
$$

ABBREVIATIONS USED IN REMARKS
   TC - TEMPERATURE IN CELSIUS
  WCI - WIND CHILL INDEX
   HX - HEAT INDEX
  VSB - VISIBILITY
$$




USA.gov is the U.S. government's official web portal to all federal, state and local government web resources and services.